Ahmedabad, India

5:42 AM IST on July 31, 2016 (GMT +0530)
Ahmedabad

Weather History for VAAH - January, 2013

Change the Weather History Date:

Thursday, January 3, 2013

  Actual Average Record
Temperature  
Mean Temperature 63 °F -  
Max Temperature 77 °F 79 °F 88 °F (2016)
Min Temperature 49 °F 53 °F 48 °F (2005)
Degree Days  
Heating Degree Days 2    
Growing Degree Days 13 (Base 50)    
Moisture  
Dew Point 46 °F    
Average Humidity 56    
Maximum Humidity 82    
Minimum Humidity 28    
Precipitation  
Precipitation 0.00 in 0.00 in - ()
Sea Level Pressure  
Sea Level Pressure 29.97 in    
Wind  
Wind Speed 5 mph ()    
Max Wind Speed 9 mph    
Max Gust Speed -    
Visibility 2.4 miles    
Events      
Averages and records for this station are not official NWS values.
T = Trace of Precipitation, MM = Missing Value Source: Averaged Metar Reports

Daily Weather History Graph

Daily Weather History Graph

Search for Another Location

Airport or City:

Trip Planner

Search our weather history database for the weather conditions in past years. The results will help you decide how hot, cold, wet, or windy it might be!

Date:

Astronomy

Jan. 03, 2013 Rise Set
Actual Time 7:21 AM IST 6:06 PM IST
Civil Twilight 6:56 AM IST 6:31 PM IST
Nautical Twilight 6:28 AM IST 6:59 PM IST
Astronomical Twilight 6:01 AM IST 7:26 PM IST
Moon 11:28 PM IST (1/3) 10:59 AM IST (1/3)
Length of Visible Light 11h 34m
Length of Day
10h 45m
Waning Gibbous, 70% of the Moon is Illuminated
Jan 3
Waning Gibbous
Jan 5
Last Quarter
Jan 12
New
Jan 19
First Quarter
Jan 27
Full

Hourly Weather History & Observations

Time (IST) Temp. Dew Point Humidity Pressure Visibility Wind Dir Wind Speed Gust Speed Precip Events Conditions
12:10 AM 55.4 °F 35.6 °F 47% 29.95 in 2.5 mi NNE 3.5 mph - N/A   Smoke
12:40 AM 55.4 °F 35.6 °F 47% 29.95 in 2.5 mi NNE 3.5 mph - N/A   Smoke
1:10 AM 53.6 °F 37.4 °F 54% 29.95 in 2.5 mi NE 3.5 mph - N/A   Smoke
1:40 AM 51.8 °F 37.4 °F 58% 29.95 in 2.5 mi ENE 3.5 mph - N/A   Smoke
2:10 AM 51.8 °F 41.0 °F 67% 29.95 in 2.5 mi NNE 3.5 mph - N/A   Smoke
2:30 AM 52 °F 44 °F 66% 29.97 in 2 mi NNW 3.5 mph - -   Haze
2:40 AM 51.8 °F 39.2 °F 62% 29.95 in 2.5 mi NNE 3.5 mph - N/A   Smoke
3:10 AM 53.6 °F 39.2 °F 58% 29.95 in 2.5 mi NE 3.5 mph - N/A   Smoke
3:40 AM 51.8 °F 39.2 °F 62% 29.95 in 2.5 mi NE 3.5 mph - N/A   Smoke
4:10 AM 50.0 °F 41.0 °F 71% 29.95 in 2.5 mi NNE 4.6 mph - N/A   Haze
4:40 AM 50.0 °F 42.8 °F 76% 29.95 in 2.5 mi NE 4.6 mph - N/A   Haze
5:10 AM 50.0 °F 42.8 °F 76% 29.95 in 2.5 mi NE 4.6 mph - N/A   Haze
5:30 AM 54 °F 46 °F 67% 29.97 in 2 mi NE 3.5 mph - -   Haze
5:40 AM 50.0 °F 42.8 °F 76% 29.95 in 2.5 mi NE 6.9 mph - N/A   Haze
6:10 AM 51.8 °F 44.6 °F 76% 29.98 in 2.2 mi NE 6.9 mph - N/A   Haze
7:10 AM 51.8 °F 42.8 °F 71% 29.98 in 1.6 mi NE 5.8 mph - N/A   Haze
7:40 AM 53.6 °F 44.6 °F 72% 30.01 in 1.2 mi NE 4.6 mph - N/A   Haze
8:10 AM 53.6 °F 44.6 °F 72% 30.01 in 1.2 mi NE 4.6 mph - N/A   Haze
8:30 AM 59 °F 48 °F 58% 30.03 in 1 mi NE 4.6 mph - -   Haze
8:40 AM 57.2 °F 44.6 °F 63% 30.01 in 1.2 mi ENE 6.9 mph - N/A   Haze
9:10 AM 59.0 °F 46.4 °F 63% 30.04 in 1.2 mi ENE 9.2 mph - N/A   Haze
9:40 AM 62.6 °F 48.2 °F 59% 30.04 in 1.2 mi East 9.2 mph - N/A   Haze
10:40 AM 68.0 °F 48.2 °F 49% 30.04 in 2.5 mi East 9.2 mph - N/A   Smoke
11:30 AM 72 °F 52 °F 39% 30.06 in 2 mi East 5.8 mph - -   Smoke
12:10 PM 73.4 °F 50.0 °F 44% 30.01 in 3.1 mi East 5.8 mph - N/A   Smoke
12:40 PM 75.2 °F 50.0 °F 41% 29.98 in 3.1 mi ENE 9.2 mph - N/A   Smoke
1:40 PM 77.0 °F 48.2 °F 36% 29.95 in 3.1 mi ENE 9.2 mph - N/A   Smoke
2:10 PM 77.0 °F 48.2 °F 36% 29.95 in 3.1 mi ENE 9.2 mph - N/A   Smoke
2:30 PM 77 °F 50 °F 28% 29.96 in 2 mi NE 5.8 mph - -  
2:40 PM 77.0 °F 46.4 °F 34% 29.92 in 3.1 mi ENE 9.2 mph - N/A   Smoke
3:10 PM 77.0 °F 46.4 °F 34% 29.92 in 3.1 mi ENE 9.2 mph - N/A   Smoke
3:40 PM 77.0 °F 44.6 °F 32% 29.89 in 3.1 mi ENE 9.2 mph - N/A   Smoke
4:10 PM 77.0 °F 46.4 °F 34% 29.89 in 3.1 mi NE 6.9 mph - N/A   Smoke
4:40 PM 77.0 °F 44.6 °F 32% 29.89 in 3.1 mi ENE 6.9 mph - N/A   Smoke
5:10 PM 75.2 °F 44.6 °F 34% 29.92 in 3.1 mi ENE 4.6 mph - N/A   Smoke
5:30 PM 74 °F 50 °F 32% 29.94 in 2 mi NE 4.6 mph - -  
5:40 PM 73.4 °F 46.4 °F 38% 29.92 in 3.1 mi NE 5.8 mph - N/A   Smoke
6:40 PM 68.0 °F 46.4 °F 46% 29.95 in 2.5 mi NE 5.8 mph - N/A   Smoke
7:10 PM 66.2 °F 46.4 °F 49% 29.95 in 2.5 mi NE 4.6 mph - N/A   Smoke
7:40 PM 64.4 °F 46.4 °F 52% 29.95 in 2.5 mi NNE 4.6 mph - N/A   Smoke
8:10 PM 62.6 °F 46.4 °F 55% 29.98 in 2.5 mi ENE 3.5 mph - N/A   Smoke
8:30 PM 61 °F 52 °F 65% 29.99 in 2 mi North 2.3 mph - -   Haze
8:40 PM 60.8 °F 48.2 °F 63% 29.98 in 2.5 mi NNE 4.6 mph - N/A   Smoke
9:10 PM 60.8 °F 48.2 °F 63% 29.98 in 2.5 mi ENE 3.5 mph - N/A   Smoke
9:40 PM 59.0 °F 48.2 °F 67% 29.98 in 2.5 mi ENE 3.5 mph - N/A   Smoke
10:10 PM 57.2 °F 50.0 °F 77% 29.98 in 2.5 mi NNE 3.5 mph - N/A   Smoke
10:40 PM 57.2 °F 51.8 °F 82% 29.98 in 2.5 mi NNE 3.5 mph - N/A   Haze
11:10 PM 57.2 °F 50.0 °F 77% 29.98 in 2.5 mi NE 3.5 mph - N/A   Haze
11:30 PM 56 °F 49 °F 71% 30.00 in 1 mi North 2.3 mph - -   Haze
11:40 PM 55.4 °F 48.2 °F 77% 29.95 in 2.5 mi NE 3.5 mph - N/A   Haze